Location: Washington
(38.8950°N, 77.0367°W)
Time: 12:02:39
(UTC-04:00)

N. Korean satellite - Visible Passes

Search period start: 24 March 2017 00:00
Search period end: 03 April 2017 00:00
Orbit: 461 x 520 km, 97.2° (Epoch: 22 March)

Date Brightness Start Highest point End Pass type
(mag) Time Alt. Az. Time Alt. Az. Time Alt. Az.
25 Mar 10.1 20:39:09 10° WSW 20:40:19 11° W 20:41:28 10° WNW visible
26 Mar 9.4 20:14:49 10° SSW 20:17:37 21° W 20:20:24 10° NW visible
27 Mar 8.0 19:51:35 10° S 19:55:00 42° W 19:58:23 10° NNW visible
30 Mar 9.6 20:18:22 10° SW 20:20:58 19° W 20:23:33 10° NW visible
31 Mar 8.3 19:55:00 10° SSW 19:58:18 37° W 20:01:35 10° NNW visible
